Location: Unspecified
(0.0000°N, 0.0000°E)
Time: 18:29:38
(UTC+00:00)

Interbol-2 - Pass Details

Date: 13 June 2023
Orbit: 911 x 19062 km, 62.8° (Epoch: 28 September)

Event Time Altitude Azimuth Distance (km) Brightness Sun altitude
Rises 16:28:18 0° 150° (SSE) 6,675 9.8 21.0°
Reaches altitude 10° 16:35:01 10° 128° (SE) 7,304 10.0 19.5°
Maximum altitude 16:58:36 19° 83° (E) 11,659 11.1 14.1°
Drops below altitude 10° 18:08:57 10° 42° (NE) 21,573 12.7 -2.0°
Sets 19:01:45 0° 31° (NNE) 24,617 13.1 -14.1°
